Mount Washington, New Hampshire, United States (03589)
Lat: 44.69N, Lon: 71.39W
Wx Zone: NHZ002
Local Info
Past Weather Observations for Today

NOTE: This archive is for the closest National Weather Service station to Mount Washington. Information may differ from the station used for current weather conditions.

Click here for Long-term Archive

Time Weather Temperature Dewpoint Humidity Pressure Winds Precip Visibility
19:52
Partly Cloudy
1°F / -17°C -9°F / -23°C 60% 29.83 in
(1010 mb)
WNW 10.4 mph
(WNW 17 kph)
- 10SM
18:52
Clear
3°F / -16°C -9°F / -23°C 55% 29.8 in
(1009 mb)
W 9.2 mph
(W 15 kph)
- 10SM
17:52
Partly Cloudy
9°F / -13°C -6°F / -21°C 51% 29.74 in
(1007 mb)
Variable 6.9 mph
(Variable 11 kph)
- 10SM
16:52
Overcast
12°F / -11°C -2°F / -19°C 52% 29.71 in
(1006 mb)
NW 11.5 mph
(NW 19 kph)
- 10SM
15:52
Overcast
18°F / -8°C 1°F / -17°C 49% 29.65 in
(1004 mb)
NNW 11.5 mph
(NNW 19 kph)
- 10SM
14:52
Mostly Cloudy
19°F / -7°C °F / -18°C 42% 29.62 in
(1003 mb)
NW 9.2 mph
(NW 15 kph)
0.00 in
(0.00 mm)
10SM
13:52
Overcast
19°F / -7°C 1°F / -17°C 45% 29.62 in
(1003 mb)
WNW 8.1 mph
(WNW 13 kph)
- 10SM
12:52
Overcast
19°F / -7°C 3°F / -16°C 49% 29.62 in
(1003 mb)
NW 9.2 mph
(NW 15 kph)
- 10SM
11:52
Overcast
19°F / -7°C 5°F / -15°C 53% 29.62 in
(1003 mb)
NW 9.2 mph
(NW 15 kph)
0.00 in
(0.00 mm)
10SM
11:07
Overcast
19°F / -7°C 9°F / -13°C 63% 29.62 in
(1003 mb)
Variable 6.9 mph
(Variable 11 kph)
0.00 in
(0.00 mm)
10SM
10:52
Overcast
Light Snow
19°F / -7°C 9°F / -13°C 63% 29.62 in
(1003 mb)
WNW 9.2 mph
(WNW 15 kph)
0.00 in
(0.00 mm)
8SM
10:43
Overcast
Light Snow
19°F / -7°C 10°F / -12°C 68% 29.62 in
(1003 mb)
WNW 8.1 mph
(WNW 13 kph)
0.00 in
(0.00 mm)
6SM
09:52
Overcast
19°F / -7°C 10°F / -12°C 68% 29.59 in
(1002 mb)
WNW 11.5 mph
(WNW 19 kph)
0.00 in
(0.00 mm)
9SM
08:52
Overcast
Light Snow
19°F / -7°C 12°F / -11°C 73% 29.59 in
(1002 mb)
Variable 5.8 mph
(Variable 9 kph)
0.00 in
(0.00 mm)
5SM
08:33
Mostly Cloudy
Light Snow
19°F / -7°C 12°F / -11°C 73% 29.59 in
(1002 mb)
Calm 0.00 in
(0.00 mm)
5SM
08:04
Partly Cloudy
14°F / -10°C 10°F / -12°C 85% 29.59 in
(1002 mb)
Calm 0.00 in
(0.00 mm)
9SM
07:52
Mostly Cloudy
Light Snow
12°F / -11°C 7°F / -14°C 79% 29.59 in
(1002 mb)
Calm 0.00 in
(0.00 mm)
6SM
07:47
Mostly Cloudy
Light Snow
10°F / -12°C 7°F / -14°C 85% 29.59 in
(1002 mb)
ESE 3.5 mph
(ESE 6 kph)
0.00 in
(0.00 mm)
6SM
06:52
Partly Cloudy
10°F / -12°C 7°F / -14°C 85% 29.59 in
(1002 mb)
SW 3.5 mph
(SW 6 kph)
- 10SM
05:52
Overcast
12°F / -11°C 9°F / -13°C 85% 29.56 in
(1001 mb)
Calm - 10SM
04:52
Clear
16°F / -9°C 9°F / -13°C 73% 29.56 in
(1001 mb)
Calm - 10SM
04:16
Partly Cloudy
16°F / -9°C 10°F / -12°C 79% 29.56 in
(1001 mb)
NNW 3.5 mph
(NNW 6 kph)
- 10SM
03:52
Overcast
18°F / -8°C 12°F / -11°C 79% 29.56 in
(1001 mb)
Calm 0.00 in
(0.00 mm)
8SM
02:52
Overcast
Hazy
16°F / -9°C 10°F / -12°C 79% 29.56 in
(1001 mb)
W 4.6 mph
(W 7 kph)
- 6SM
02:36
Overcast
12°F / -11°C 9°F / -13°C 85% 29.56 in
(1001 mb)
Calm - 10SM
01:52
Partly Cloudy
18°F / -8°C 10°F / -12°C 73% 29.56 in
(1001 mb)
Calm - 10SM
01:05
Mostly Cloudy
19°F / -7°C 12°F / -11°C 73% 29.56 in
(1001 mb)
NNE 4.6 mph
(NNE 7 kph)
- 10SM
00:52
Overcast
19°F / -7°C 12°F / -11°C 73% 29.56 in
(1001 mb)
N 4.6 mph
(N 7 kph)
- 10SM
Time Weather Temperature Dewpoint Humidity Pressure Winds Precip Visibility


Weather for websites

WeatherForYou.com, LLC is not responsible for any damages or problems caused by this service. Current weather conditions are obtained from the closest station including government and personal stations which may have varying degrees of accuracy. Weather forecasts are derived from the NOAA NDFD. Like all things, this site belongs to Jesus Christ... He just trusts us to maintain it. If you have any questions or comments email webmaster@weatherforyou.com

Copyright © 2016, WeatherForYou.com LLC. All rights reserved.